Regional Weather Roundup
Issued by NWS

Home | Current Version | Previous Version | Text Only | Print | Product List | Glossary On
Versions: 1 2 3 4 5 6 7 8 9 10 11 12 13 14 15 16 17 18 19 20 21 22 23 24 25 26 27 28 29 30 31 32 33 34 35 36 37 38 39 40 41 42 43 44 45 46 47 48 49 50
000
ASUS46 KLOX 290512
RWRCA

SOUTHERN CALIFORNIA WEATHER ROUNDUP
NATIONAL WEATHER SERVICE OXNARD CALIFORNIA
900 PM PST FRI NOV 28 2014

NOTE: "FAIR" INDICATES FEW OR NO CLOUDS BELOW 12,000 FEET WITH NO
SIGNIFICANT WEATHER AND/OR OBSTRUCTIONS TO VISIBILITY.

  -  STATIONS PRECEEDED BY AN ASTERISK (*) ARE NOT NWS OR FAA
     STATIONS AND ARE NOT SUBJECT TO NWS AND FAA QUALITY CONTROL.

CAZ041-042-087-290600-
LA AND ORANGE COUNTY COASTAL AREAS


CITY           SKY/WX    TMP DP  RH WIND       PRES   REMARKS
L.A. DOWNTOWN  CLEAR     60  50  69 CALM      29.89S
L.A. AIRPORT   PTCLDY    62  57  83 SE3       29.90S
LONG BEACH     CLEAR     60  58  92 CALM      29.90S

CITY           SKY/WX    TMP DP  RH WIND       PRES   REMARKS
AVALON           N/A     52 N/A N/A S3          N/A
FULLERTON      CLEAR     59  47  64 CALM      29.89S
*GETTY CENTER    N/A     64  30  27 NE6         N/A
HAWTHORNE      CLEAR     63  54  72 CALM      29.90S
*LOS ALAMITOS  CLEAR     56  56 100 CALM      29.90S FOG
*REDONDO BEACH   N/A     59  56  88 CALM      29.89S
SANTA ANA      CLEAR     63  44  50 CALM      29.90S
STA MONICA APT CLEAR     60  44  55 N3        29.90S

$$

CAZ547-548-048-290600-
LA COUNTY VALLEYS AND INLAND EMPIRE


CITY           SKY/WX    TMP DP  RH WIND       PRES   REMARKS
BURBANK        CLEAR     59  35  40 CALM      29.90S
VAN NUYS       CLEAR     58  33  39 CALM      29.91S

CITY           SKY/WX    TMP DP  RH WIND       PRES   REMARKS
CORONA AIRPORT CLEAR     51  32  48 CALM      29.92S
*CHATSWORTH      N/A     60  33  36 CALM      29.89R
CHINO          CLEAR     55  37  50 SE3       29.93R
MARCH AFB      CLEAR     51  27  38 W1        29.94S
*NORTHRIDGE      N/A     57  28  33 N1          N/A
ONTARIO        CLEAR     62  35  36 NE3       29.92R
*PASADENA        N/A     63  39  42 CALM        N/A
POMONA         CLEAR     57  34  41 CALM      29.95
RIVERSIDE      CLEAR     59  36  42 E3        29.93R
SAN BERNARDINO NOT AVBL
*WHITEMAN AP   NOT AVBL
*WOODLAND HILL   N/A     54  36  50 SE1         N/A

$$

CAZ054-055-290600-
LA AND SAN BERNARDINO COUNTY MOUNTAINS


CITY           SKY/WX    TMP DP  RH WIND       PRES   REMARKS
*ACTON           N/A     51  17  26 N3          N/A
*BIG BEAR AIRP CLEAR     32   9  37 W3        30.14S
*BIG PINES       N/A     46  10  23 CALM        N/A
*CHILAO          N/A     56  14  19 CALM        N/A
MT WILSON NWS    N/A     54  14  20 MISG        N/A
SANDBERG       CLEAR     58  18  21 SW5       30.04S
*WARM SPRINGS    N/A     60  24  25 SE3         N/A

$$

CAZ028-029-059-060-099-290600-
ANTELOPE VALLEY AND SURROUNDING AREAS


CITY           SKY/WX    TMP DP  RH WIND       PRES   REMARKS
LANCASTER      CLEAR     51  22  31 NW7       29.95R
PALMDALE       CLEAR     55  21  26 S7        29.96R

CITY           SKY/WX    TMP DP  RH WIND       PRES   REMARKS
29 PALMS       CLEAR     57  17  21 W7        30.01R
BARSTOW/DAGGET CLEAR     57  12  17 W6        29.93R
BISHOP         PTCLDY    44  11  26 CALM      29.89F
CHINA LAKE     CLEAR     61  -1   8 S14       29.89R
EDWARDS AFB    CLEAR     50  17  26 SW6       29.93R
MOJAVE         FAIR      63  18  17 W14       29.96R
NEEDLES        CLEAR     57  18  21 W8        29.89S
VICTORVILLE    CLEAR     52  16  24 SW8       29.96F

$$

CAZ039-040-290600-
VENTURA AND SANTA BARBARA COUNTY COAST


CITY           SKY/WX    TMP DP  RH WIND       PRES   REMARKS
CAMARILLO      CLEAR     54  46  74 NW3       29.89S
NWS OXNARD       N/A     55  43  64 CALM      29.89R
OXNARD AIRPORT CLEAR     58  46  64 E5        29.89S
*POINT MUGU    CLEAR     56  50  80 NE3       29.90R
SBA APT/GOLETA MOCLDY    58  55  90 NE6       29.88S FOG
*SANTA BARBARA   N/A     57  49  73 CALM      29.97S
*VENTURA         N/A     56  39  52 CALM      29.93S

$$

CAZ044-045-290600-
VENTURA COUNTY VALLEYS


CITY           SKY/WX    TMP DP  RH WIND       PRES   REMARKS
*SIMI VALLEY     N/A     56  33  42 CALM      29.86S
*OJAI            N/A     45  36  70 CALM      29.87S
*FILLMORE        N/A     51  38  59 CALM      29.82R

$$

CAZ053-290600-
VENTURA COUNTY MOUNTAINS


CITY           SKY/WX    TMP DP  RH WIND       PRES   REMARKS
*LOCKWOOD VLY    N/A    N/A N/A N/A MISG        N/A
*ROSE VALLEY     N/A     36  19  51 MISG        N/A

$$

CAZ034-035-036-290600-
CENTRAL COAST AND SANTA YNEZ VALLEY


CITY           SKY/WX    TMP DP  RH WIND       PRES   REMARKS
SAN LUIS OBISP CLEAR     47  41  80 CALM      29.91S
SANTA MARIA    CLEAR     50  36  58 CALM      29.91F

CITY           SKY/WX    TMP DP  RH WIND       PRES   REMARKS
*CAL POLY SLO    N/A     45  34  65 CALM        N/A
*LOMPOC        CLEAR     45  39  81 E5        29.91S
*PISMO BEACH     N/A     51  47  86 NE1       29.92R
*SANTA YNEZ    FAIR      50  32  50 E5        29.92S

$$

CAZ037-038-051-290600-
SAN LUIS OBISPO COUNTY INTERIOR AND CUYAMA VALLEY


CITY           SKY/WX    TMP DP  RH WIND       PRES   REMARKS
*CUYAMA          N/A     50  15  24 SE3       29.91S
PASO ROBLES    CLEAR     54  23  30 S6        29.91R

$$

CAZ032-033-061-290600-
SOUTHERN DESERTS


CITY           SKY/WX    TMP DP  RH WIND       PRES   REMARKS
BLYTHE         CLEAR     56  22  26 N7        29.88S
IMPERIAL       CLEAR     55  38  52 W5        29.86R
PALM SPRINGS   CLEAR     62  26  25 NW8       29.91S
THERMAL        CLEAR     47  32  56 CALM      29.86S

$$

ELSEWHERE ACROSS THE WESTERN UNITED STATES AND MEXICO


CITY           SKY/WX    TMP DP  RH WIND       PRES   REMARKS
DENVER, CO     CLOUDY    59   9  13 W23G32    29.78F
GRAND CANYON,  PTCLDY    21   2  43 CALM      30.11S
HONOLULU, HI   MOCLDY    75  63  64 NE10      30.02R
KAHULUI, MAUI  PTCLDY    73  63  68 NE12      30.03R
LAKE TAHOE, CA PTCLDY    49   3  15 S20G29    29.89S
LAS VEGAS, NV  CLEAR     52  23  32 SW7       29.87S
MAMMOTH LAKES, FAIR      48   3  15 SW26G39   29.99S
MEXICO CITY, M PTCLDY    55  39  54 W5        30.35S
PHOENIX, AZ    CLEAR     63  34  33 E8        29.90S
PORTLAND, OR   CLOUDY    46  40  79 W9        29.59R
RENO, NV       PTCLDY    51   0  12 N9        29.83R
SALT LAKE CITY MOCLDY    59  13  16 S23G35    29.76F
SAN DIEGO, CA  FOG       61  61 100 CALM      29.93R VSB 1/8
SAN FRANCISCO, MOCLDY    60  53  77 S8        29.88S
SAN JOSE, CA   PTCLDY    51  46  83 S5        29.90R
SEATTLE, WA    LGT RAIN  38  35  89 SE10      29.52S WCI  31
TIJUANA, MEX   CLEAR     59  39  47 CALM      29.95R

$$

STATION/POSITION TIME  TEMP    WIND        PRES    VSBY  WAVE
                       AIR SEA DIR/SP/G                  HT/PER
                 (UTC) (F)     (DEG/KT/KT) (MB)    (MI)  (FT/S)
POINT ARGUELLO B NOT AVBL
WEST SANTA BARBA 0500   63 64  310/ 12/ 14 1011.5F         6/12
POINT CONCEPTION NOT AVBL
EAST SANTA BARBA 0500   65 66  240/  4/  6 1012.2R
SANTA MONICA BAY 0500   61 66  220/  2/  4 1012.9R         5/12


USA.gov is the U.S. government's official web portal to all federal, state and local government web resources and services.